Regional Weather Roundup
Issued by NWS Kansas City/Pleasant Hill, MO

Home | Current Version | Previous Version | Text Only | Print | Product List | Glossary On
Versions: 1 2 3 4 5 6 7 8 9 10 11 12 13 14 15 16 17 18 19 20 21 22 23 24 25 26 27 28 29 30 31 32 33 34 35 36 37 38 39 40 41 42 43 44 45 46 47 48 49 50
000
ASUS43 KEAX 182210
RWREAX

WEATHER ROUNDUP FOR EASTERN KANSAS AND NORTHWEST MISSOURI
NATIONAL WEATHER SERVICE KANSAS CITY/PLEASANT HILL MO
400 PM CST WED JAN 18 2017

KSZ040-057-103>105-MOZ028-029-037-043-182300-
...KANSAS CITY METROPOLITAN AREA...

CITY           SKY/WX    TMP DP  RH WIND       PRES   REMARKS
K.C. INTL      SUNNY     48  37  65 SE10      30.00F
K.C. DOWNTOWN  SUNNY     50  38  63 S6        30.02F
LEES SUMMIT    SUNNY     48  39  71 SE5       30.02F
OLATHE - IXD   SUNNY     48  38  68 S12       30.01F
OLATHE - OJC   SUNNY     47  41  80 S10       30.01F
LAWRENCE       SUNNY     50  38  63 SE12      30.00F

$$

MOZ001>008-011>017-020>025-030>033-038>040-044>046-053-054-182300-
...NORTHERN AND CENTRAL MISSOURI...

CITY           SKY/WX    TMP DP  RH WIND       PRES   REMARKS
ST. JOSEPH     SUNNY     49  39  68 SE10      30.00F
MOSBY          CLEAR     45  41  87 SE5       30.03F
WARRENSBURG    PTSUNNY   46  37  71 S6        30.04F
WHITEMAN AFB   PTSUNNY   48  41  74 S6        30.03F
CLINTON        CLOUDY    48  39  71 SE5       30.05F
SEDALIA        CLOUDY    50  39  66 S5        30.06S
WARSAW         NOT AVBL
CHILLICOTHE      N/A     42  37  82 SE5       30.05F
KIRKSVILLE     CLOUDY    38  36  92 S9        30.06F WCI  31

$$

MOZ041-047>049-056>058-063>065-088>090-097-182300-
...EASTERN AND SOUTHERN MISSOURI...

CITY           SKY/WX    TMP DP  RH WIND       PRES   REMARKS
ST. LOUIS INTL PTSUNNY   48  34  58 SE8       30.10F
SPIRIT OF STL  PTSUNNY   49  35  58 S5        30.10F
COLUMBIA       SUNNY     50  36  58 CALM      30.07F
JEFFERSON CITY SUNNY     50  35  56 E7        30.07F
ROLLA          CLOUDY    49  35  58 MISG      30.06S
OSAGE BEACH    CLOUDY    53  35  50 CALM      30.06F
SPRINGFIELD    CLOUDY    49  38  65 SE9       30.04R
BRANSON        CLOUDY    41  39  93 E8        30.07F
JOPLIN         CLOUDY    54  41  61 SE8       30.03F
WEST PLAINS    CLOUDY    42  38  85 SE5       30.09F

$$

IAZ060-094-KSZ022-034>040-054-083-096-NEZ052-066-093-182300-
...KANSAS...SOUTHEAST NEBRASKA AND IOWA...

CITY           SKY/WX    TMP DP  RH WIND       PRES   REMARKS
TOPEKA         SUNNY     54  39  57 SE13      29.98F
MANHATTAN      SUNNY     58  31  35 SW10      29.94F
EMPORIA        PTSUNNY   52  33  48 S13       29.97F
CHANUTE        CLOUDY    49  40  71 E6        30.01F
WICHITA        MOSUNNY   54  41  61 S14       29.96F
OMAHA          MOSUNNY   48  40  73 SE13      29.91S
LINCOLN        SUNNY     50  39  66 S18G25    29.91F
FALLS CITY     SUNNY     51  38  60 S10       29.96F
LAMONI         SUNNY     39  36  89 S12       30.00F WCI  32
DES MOINES     MOSUNNY   45  36  70 S14       29.98R

$$




USA.gov is the U.S. government's official web portal to all federal, state and local government web resources and services.